Dati Storici

Data ora Umidita' aria (%) Temperatura aria (°C) Rad globale (W/m²) Gonioanemometro (°) Tacoanemometro (m/s) Pioggia (mm)
15-10-2012 03:20 89.5 % 12.36 2.959 13.899 2.743 0
15-10-2012 03:10 88.7 % 12.345 3.114 25.39 4.398 0
15-10-2012 03:00 87.9 % 12.493 3.126 40.271 2.674 0
15-10-2012 02:50 87.3 % 12.701 2.754 1.273 0.58 0
15-10-2012 02:40 87.2 % 12.849 2.934 48.687 1.016 0
15-10-2012 02:30 86.8 % 12.846 2.425 2.094 1.124 0
15-10-2012 02:20 86 % 12.913 2.425 92.875 0.774 0
15-10-2012 02:10 85.6 % 13.073 3.297 84.01 1.034 0
15-10-2012 02:00 85.6 % 13.159 3.745 57.638 0.557 0
15-10-2012 01:50 85.4 % 13.119 3.194 21.317 1.045 0
15-10-2012 01:40 84.7 % 13.128 2.36 103.037 0.354 0
15-10-2012 01:30 84 % 13.225 2.04 56.334 1.256 0
15-10-2012 01:20 83.5 % 13.412 2.283 340.383 0.75 0
15-10-2012 01:10 82.8 % 13.559 2.04 29.033 1.523 0
15-10-2012 01:00 82.2 % 13.754 2.271 8.659 1.261 0
15-10-2012 00:50 81.8 % 13.975 2.283 11.114 1.516 0
15-10-2012 00:40 81.6 % 13.926 2.155 48.108 1.742 0
15-10-2012 00:30 81.5 % 14.07 2.128 0.692 2.01 0
15-10-2012 00:20 81.5 % 14.066 1.807 34.152 1.263 0
15-10-2012 00:10 81 % 14.091 1.794 189.276 0.409 0

I dati sono presentati in modo automatico a scopo informativo. In seguito a verifica i dati possono subire modifiche o essere invalidati e non riportati negli archivi definitivi.